RH
62 67 71 76 79 81 86 86 87 85 85 90 91 86 80 76 77 77 72 70 64 60 57 57 60 58 57 57 61 59 56 57 57 60 52 41 46 54 54 51 51 50 48 49 49 50 54 57 58 60 60 60 61 64 65 65 64 63 62 60 59 57 56 54 51 50 50 53 55 56 57 56 52 49 47 47 47 47 46 47 50 53 55 57 60 60 62 64 63 63 64 65 63 63 63 64 64
65 72 76 76 78 82 84 85 88 88 87 89 90 86 79 73 76 74 72 73 64 56 52 55 58 60 60 60 61 56 54 54 55 53 41 40 48 52 54 51 49 50 47 47 48 48 51 53 55 57 57 58 57 58 59 61 60 59 60 60 58 57 55 52 50 50 50 53 55 57 60 56 51 48 47 46 45 45 47 51 55 57 59 61 63 64 65 66 65 65 65 66 65 64 65 66 67
69 75 76 77 81 83 81 83 88 88 84 84 87 84 79 77 76 74 75 72 60 51 49 53 58 62 62 59 60 57 56 54 49 42 36 43 46 48 53 53 49 46 43 44 45 46 48 51 53 54 55 57 56 55 54 55 55 55 57 58 58 57 56 54 52 52 53 56 57 57 57 54 51 49 46 45 45 48 52 56 60 60 61 63 63 64 66 68 67 65 65 66 66 65 66 67 68
71 75 76 77 80 85 82 84 89 89 85 83 84 82 82 80 76 74 74 66 58 52 49 54 59 62 62 61 61 59 56 48 40 37 38 44 43 43 49 52 50 43 42 43 43 43 46 49 52 52 54 55 55 55 54 54 54 55 56 57 57 57 57 56 56 55 56 56 56 53 53 53 51 49 47 47 49 53 57 60 62 62 62 64 64 65 67 69 66 65 66 66 67 68 68 68 70
70 76 75 75 77 81 81 83 87 90 88 84 81 83 84 81 78 74 70 66 62 54 52 59 59 60 64 64 61 58 52 43 40 38 39 41 38 40 46 51 49 44 45 45 42 41 43 46 48 50 52 53 53 54 54 54 54 54 55 56 56 56 56 56 56 56 55 54 52 51 52 52 50 49 48 49 53 58 60 61 63 63 63 64 64 65 67 66 62 61 63 65 68 70 69 69 69
71 75 75 75 76 80 81 82 88 88 84 80 78 81 83 81 79 73 69 67 63 56 56 62 59 57 61 61 61 60 53 48 47 42 38 37 36 39 45 51 50 47 46 45 40 38 41 43 45 47 49 50 51 52 53 53 52 52 53 54 55 54 54 54 54 54 54 53 52 51 50 49 48 48 50 53 57 59 60 61 61 61 62 64 64 65 64 62 60 59 60 63 66 68 69 69 69
70 73 74 76 79 82 82 83 89 87 80 78 78 79 80 79 76 74 71 67 64 63 61 63 62 59 61 63 64 61 55 53 48 41 38 36 37 39 42 48 51 48 46 44 36 33 37 40 42 44 46 47 48 49 49 49 50 50 51 52 53 52 53 52 53 54 54 53 51 49 49 49 48 50 54 57 58 58 59 59 59 60 61 63 63 65 64 62 61 60 60 62 64 66 68 70 71
69 71 72 76 82 84 82 85 88 84 79 78 78 78 77 76 74 76 73 68 67 69 66 63 64 65 65 65 67 63 59 55 45 38 37 36 38 39 41 48 53 51 49 43 34 31 32 35 39 41 43 46 47 47 47 47 47 48 49 49 50 51 52 52 52 51 51 50 49 48 49 50 51 54 57 58 58 58 57 57 59 60 62 63 64 63 62 61 61 61 62 64 67 70 71 73 75
68 69 72 76 81 83 83 85 85 78 78 80 78 78 78 76 74 77 76 73 73 72 69 65 65 66 64 63 65 65 61 53 40 37 38 37 39 39 42 48 53 54 52 45 36 30 29 32 34 36 39 43 46 46 46 46 46 46 46 48 49 49 50 50 50 49 49 48 49 50 50 51 54 57 57 57 56 56 57 58 59 61 62 62 60 58 58 60 63 66 67 69 72 74 75 75 76
66 70 72 76 76 80 82 79 81 81 78 78 77 77 77 77 78 80 78 79 77 74 70 67 66 64 63 63 64 62 58 49 38 37 39 38 40 40 44 50 52 54 53 45 38 32 28 30 31 32 34 37 42 44 45 44 44 44 45 46 46 47 47 47 47 48 49 49 50 50 51 53 55 56 55 54 54 55 57 59 60 59 59 57 56 57 60 63 65 68 70 71 73 74 74 75 75
71 72 71 77 74 75 78 74 81 87 81 78 75 74 73 76 81 79 76 77 76 75 71 66 66 64 63 62 64 62 57 51 40 37 39 41 43 41 43 49 52 53 52 43 38 33 28 29 29 30 31 33 37 41 43 41 41 42 42 44 44 45 44 44 45 48 50 51 51 51 51 53 53 52 51 50 52 55 58 58 56 55 55 56 57 60 62 64 67 68 69 71 72 73 74 74 75
73 72 71 79 75 74 76 73 80 83 81 80 75 75 75 77 79 76 76 78 76 75 70 66 66 64 61 60 63 61 58 56 46 39 38 42 46 42 39 45 50 52 53 47 39 34 30 30 29 28 29 30 33 37 40 39 40 40 41 42 42 42 42 44 46 49 51 51 51 50 51 51 49 49 49 50 52 55 55 54 53 54 55 58 59 61 63 64 66 68 69 71 72 74 74 76 77
68 68 69 74 75 79 78 72 77 80 82 81 77 78 79 79 78 77 79 79 77 74 70 67 69 67 64 62 61 60 61 57 46 40 39 42 45 44 39 40 47 49 54 51 40 35 32 30 30 29 29 30 32 36 38 39 40 41 41 42 42 42 43 45 48 51 51 50 49 48 48 47 47 49 50 50 51 52 53 52 53 54 56 57 58 60 62 62 63 66 69 71 72 74 76 77 79
62 65 67 70 70 76 78 75 74 77 81 79 77 80 82 80 77 79 81 79 77 75 72 67 70 71 65 62 60 59 61 54 44 42 41 43 43 42 39 38 43 46 53 54 43 37 34 33 33 31 30 31 32 33 36 37 38 40 40 40 40 40 42 45 48 51 50 49 47 46 47 47 49 50 50 50 51 52 53 53 53 54 55 56 56 57 58 59 61 64 67 71 73 75 76 76 77
61 64 66 67 67 68 73 77 75 74 79 78 80 82 84 83 79 82 82 79 78 75 73 67 71 72 63 61 60 57 58 49 41 42 41 41 41 40 40 38 40 42 48 54 48 42 40 38 37 35 33 34 35 34 34 35 36 38 37 38 39 39 41 43 46 48 47 47 46 46 47 48 51 51 51 51 52 54 53 54 55 55 54 52 51 52 55 57 60 63 66 69 72 74 75 75 78
59 62 63 64 65 67 68 74 76 77 78 78 82 83 84 86 83 85 83 81 81 78 74 69 71 69 63 63 60 57 55 45 38 40 39 39 40 40 40 40 40 39 45 53 51 46 45 43 41 38 34 40 43 39 38 36 35 37 37 37 38 40 40 42 45 46 46 46 46 47 47 49 53 55 55 54 53 54 54 54 54 53 51 50 50 52 56 58 61 65 66 69 73 74 75 77 80
56 59 61 60 61 66 68 71 75 76 79 81 85 82 81 84 85 87 84 82 83 79 74 70 69 67 64 63 60 57 50 41 39 39 37 38 40 41 42 42 40 39 42 49 49 43 44 45 44 39 35 42 46 45 46 42 38 37 37 38 38 39 40 41 43 44 45 45 47 48 50 53 55 57 57 56 54 53 53 53 52 51 51 52 53 55 60 62 65 69 71 71 74 74 75 77 79
56 59 56 56 58 60 64 70 73 75 77 81 84 81 78 80 83 86 84 82 81 79 75 70 69 66 65 63 59 55 46 41 40 39 38 38 40 42 44 42 42 40 39 43 45 43 42 45 46 42 38 41 42 47 52 50 45 40 38 39 38 39 40 39 40 42 45 48 51 52 53 55 57 57 56 55 55 52 53 53 52 54 56 59 61 62 66 69 69 73 75 73 73 73 74 75 76
55 57 54 55 55 56 59 65 70 74 75 75 80 81 79 79 81 82 82 82 80 76 74 71 69 67 66 64 58 52 46 42 42 41 39 38 40 42 42 42 43 41 39 40 41 42 42 44 45 42 41 41 40 45 53 54 50 45 42 42 41 41 41 39 39 43 47 52 55 54 55 57 58 57 52 52 53 52 54 55 57 61 62 64 67 67 69 72 70 71 73 71 71 73 74 74 74
51 51 52 54 54 53 55 60 65 69 73 74 77 79 77 79 78 77 77 78 76 74 75 72 69 67 65 61 54 50 46 43 44 43 39 40 42 41 39 40 42 41 38 39 39 40 40 42 43 41 40 42 42 42 48 52 47 44 45 47 48 46 43 41 42 45 50 53 53 52 55 59 60 56 52 52 52 54 56 59 64 66 64 64 68 68 69 71 70 68 68 67 69 71 73 74 73
49 47 48 52 53 52 52 57 63 66 71 74 74 75 78 78 76 75 74 74 73 74 76 73 70 66 62 56 52 50 47 44 46 42 39 41 42 41 39 38 40 39 36 36 37 37 37 38 40 39 39 41 44 42 43 47 44 42 44 48 51 50 48 47 47 50 53 53 52 53 55 58 58 56 57 59 58 58 60 63 67 65 63 65 65 66 67 69 70 68 66 66 67 70 72 74 75
47 46 48 51 51 51 51 55 63 68 69 70 72 72 75 76 74 75 74 73 72 73 74 71 69 66 61 57 54 51 48 46 46 42 41 40 39 42 42 38 37 37 34 35 36 36 35 35 35 35 36 38 42 43 43 45 45 45 46 48 50 51 54 54 54 56 56 54 53 54 54 55 56 55 59 64 63 61 64 67 65 60 63 66 64 65 66 66 68 67 66 67 66 68 70 72 75
45 45 48 48 46 47 49 54 63 69 69 68 70 70 69 71 72 73 73 71 70 72 72 68 67 66 61 57 54 53 49 46 45 44 43 42 39 40 43 42 39 36 32 33 35 35 33 32 32 33 35 36 39 42 44 45 44 44 47 49 51 53 54 56 57 58 57 56 55 53 53 53 54 58 60 65 65 63 65 64 61 60 62 66 66 67 67 67 68 67 67 68 66 67 69 71 73
43 47 47 45 43 44 47 54 63 65 67 67 65 67 67 68 70 71 70 69 68 71 72 67 64 64 61 57 56 55 51 48 47 45 43 43 42 38 40 43 41 38 32 31 33 33 32 31 30 32 34 36 38 42 43 45 45 44 46 49 51 51 53 56 57 58 57 57 55 51 51 51 53 58 61 67 68 63 62 61 60 62 62 65 67 66 68 69 69 68 68 68 68 68 70 71 72
43 47 48 45 43 43 45 51 58 59 60 62 59 62 66 67 68 68 67 66 66 69 68 65 63 63 62 59 60 59 55 51 49 47 44 42 42 38 37 37 41 39 32 30 32 31 31 30 30 31 34 37 40 42 43 45 47 47 48 49 49 49 50 52 55 56 55 55 54 50 48 48 49 53 58 67 69 61 60 60 60 62 63 66 68 68 71 71 70 68 68 68 68 70 71 70 72
45 44 43 43 41 43 48 50 54 55 55 61 61 60 64 65 65 65 65 65 64 65 64 62 60 60 59 59 60 60 58 54 49 46 43 42 41 39 35 32 38 40 34 32 31 33 33 30 30 31 34 40 42 44 45 46 48 49 49 49 50 49 47 46 49 52 51 51 52 51 50 48 48 52 57 63 66 62 61 63 62 63 64 64 67 70 74 74 71 67 67 67 68 70 72 71 73
41 39 39 39 39 43 49 50 51 50 53 64 66 60 62 63 62 62 63 65 64 63 64 62 60 58 58 57 58 59 60 58 53 47 43 44 41 39 33 28 36 40 38 38 34 38 39 32 30 31 34 41 43 45 46 48 49 49 50 50 51 51 47 42 43 47 48 48 50 52 53 52 51 54 57 60 62 61 61 63 63 63 64 67 70 73 76 76 72 69 68 67 68 71 73 73 76
35 38 41 38 40 41 44 47 48 49 52 60 64 60 62 61 59 58 59 63 64 60 61 62 61 60 59 59 59 59 60 60 56 49 46 46 42 40 33 27 34 38 40 45 39 38 40 35 35 33 35 40 41 44 46 48 50 50 51 51 51 51 48 43 43 46 47 47 50 55 57 56 55 56 57 59 59 58 59 63 65 64 66 70 73 73 76 77 73 75 75 71 70 72 74 74 78
35 41 43 39 40 39 41 44 45 51 52 53 58 59 62 63 58 56 57 59 59 56 55 58 58 57 57 57 58 58 58 57 54 52 50 47 42 42 38 32 37 37 36 44 40 38 40 40 42 38 36 40 41 43 47 49 50 50 50 51 51 50 49 48 48 48 48 49 52 56 60 59 56 57 59 58 58 59 62 66 66 65 66 69 69 67 71 73 71 78 81 75 71 72 74 75 77
39 42 42 41 43 40 40 43 44 49 52 52 56 57 61 65 57 53 57 56 55 53 51 52 53 53 53 53 55 56 57 56 53 52 50 46 42 43 43 39 41 39 36 39 37 43 49 43 40 37 37 42 43 44 48 51 52 52 51 50 51 51 51 51 50 50 50 52 54 57 61 61 59 58 60 60 59 61 63 63 62 61 62 63 63 61 63 68 70 76 79 75 73 74 73 72 74
41 40 38 40 45 43 38 39 43 46 48 50 55 56 61 65 57 51 55 57 54 53 52 53 52 52 53 51 53 55 57 57 55 53 50 46 44 44 45 43 43 40 39 41 38 43 49 43 41 41 39 42 45 46 48 51 53 53 52 52 53 53 53 53 54 54 53 54 56 58 60 61 63 61 61 60 58 59 60 58 57 56 56 57 59 59 62 68 72 75 77 75 75 77 73 70 74
42 40 38 36 41 45 39 39 44 48 48 50 54 56 57 59 56 53 57 58 56 55 58 58 55 56 58 53 52 55 57 59 57 56 53 50 49 49 49 48 46 44 43 46 44 43 46 47 49 48 44 44 47 48 49 50 52 53 54 54 56 56 57 58 58 58 58 57 58 64 66 65 67 65 63 59 55 56 59 58 54 54 55 58 62 65 67 70 73 75 75 75 76 78 75 73 77
38 36 37 32 34 41 44 45 46 48 48 49 52 53 52 49 50 54 60 62 58 58 63 63 59 61 63 57 55 56 56 58 58 57 57 56 56 56 57 55 54 51 50 50 51 49 50 53 53 53 53 53 51 52 53 53 52 53 56 58 60 61 62 62 61 62 62 62 64 68 68 66 65 64 64 61 57 55 58 59 56 56 58 63 69 72 72 72 72 74 75 75 77 78 76 76 80
33 31 30 30 34 39 45 48 43 45 48 49 50 51 48 44 44 47 54 60 57 56 66 69 63 63 67 65 64 63 59 58 59 58 58 59 60 59 60 61 61 58 55 55 55 54 53 56 58 59 62 61 60 58 59 58 56 54 56 59 62 63 64 64 64 66 66 65 64 64 65 67 65 64 64 63 60 58 58 60 60 61 63 68 74 75 73 72 73 76 77 78 79 78 77 78 82
31 27 24 29 36 37 43 47 42 42 47 48 49 51 48 44 46 45 46 54 57 57 63 68 68 67 69 70 71 71 65 60 58 58 58 58 58 58 58 59 61 59 58 56 56 56 57 58 59 62 65 66 65 62 60 62 62 61 60 62 63 64 65 67 66 64 62 62 63 62 65 71 72 70 68 66 66 65 64 67 67 67 67 70 74 74 73 74 76 77 79 80 79 78 78 80 81
29 26 22 25 31 38 44 45 41 40 46 48 47 50 49 45 45 45 43 47 51 54 57 64 72 72 71 75 75 71 65 61 60 60 59 58 58 58 58 58 59 59 60 59 57 58 59 59 63 67 67 67 65 63 59 61 65 67 68 67 65 66 68 69 67 62 59 60 63 63 66 71 73 71 67 67 70 71 72 74 74 73 72 73 74 74 74 75 76 77 78 80 78 78 79 80 77
26 24 23 22 29 42 46 41 39 39 44 47 45 47 47 44 43 42 42 42 45 51 54 58 65 70 74 77 77 74 68 63 62 61 60 60 59 58 59 59 59 61 64 64 64 65 63 65 73 72 66 64 64 66 64 63 64 64 67 69 68 68 67 66 65 63 61 60 60 62 65 70 72 72 71 70 71 74 76 77 77 77 77 76 75 73 74 76 78 77 77 79 78 78 79 78 72
25 24 22 22 25 37 42 40 42 39 41 45 42 44 45 44 42 41 41 44 48 51 53 54 59 70 75 71 73 75 69 61 58 59 59 61 62 61 62 61 61 64 66 66 68 70 66 65 69 67 63 63 63 67 67 63 63 62 63 67 71 73 71 70 70 69 67 64 61 64 69 71 73 75 76 76 77 79 80 79 77 78 78 78 78 76 76 78 78 76 76 77 76 75 76 73 67
25 22 19 21 22 28 34 40 43 37 42 47 40 42 47 44 42 42 43 44 46 49 51 52 57 67 69 65 68 70 65 60 58 60 61 62 64 64 65 64 63 65 66 66 70 74 71 64 63 64 66 64 62 65 64 61 64 66 66 67 73 77 75 73 72 70 69 70 70 71 74 75 76 79 80 82 84 84 84 81 79 79 78 78 80 79 80 80 78 74 73 73 72 71 71 67 62
25 22 21 22 23 26 29 37 42 35 40 45 39 42 48 44 42 42 41 41 44 47 51 53 53 56 60 61 63 63 63 62 60 62 63 65 67 66 65 66 67 69 69 71 74 76 71 67 67 68 66 65 64 65 65 64 65 68 71 73 75 74 69 66 67 70 71 72 74 74 76 77 80 82 83 85 86 86 86 82 81 82 80 78 80 82 82 78 75 72 69 68 68 68 67 63 56
26 22 22 23 25 29 29 34 39 35 38 40 37 42 44 44 45 42 39 40 42 44 49 53 51 50 56 60 60 62 63 59 58 61 63 68 71 70 69 70 71 74 76 77 75 71 67 68 70 68 67 67 67 67 67 67 67 68 70 69 66 62 59 61 67 71 71 71 73 74 75 74 76 79 80 81 84 89 88 84 84 83 81 80 83 84 80 75 71 69 67 67 67 67 63 57 48
25 22 21 22 24 28 31 34 36 35 38 38 37 41 42 44 46 43 41 40 42 44 46 51 52 50 54 59 60 62 61 56 56 57 58 64 68 69 69 72 74 76 80 78 72 69 67 69 70 69 70 69 69 68 68 68 66 66 66 63 60 58 58 59 63 66 65 66 68 67 69 68 70 73 75 77 81 86 86 85 86 85 84 84 83 80 75 70 68 66 65 63 64 62 56 50 45
24 23 20 21 23 27 31 34 32 31 35 37 35 37 41 42 44 46 45 43 45 49 48 50 55 53 52 57 58 56 54 53 53 52 53 58 62 63 64 69 72 72 72 69 67 67 66 67 68 69 69 68 67 66 65 65 61 60 62 60 56 55 56 55 58 61 58 57 58 56 58 62 65 67 71 76 79 81 84 85 85 82 81 80 77 74 70 66 64 63 60 56 55 54 50 47 48
23 22 21 21 23 27 30 30 28 27 31 34 31 34 42 44 45 46 45 45 47 51 52 51 53 51 49 52 55 54 51 51 50 49 49 51 55 57 58 61 64 64 62 58 60 62 60 61 63 64 65 63 62 61 59 59 57 53 54 53 49 48 49 50 56 58 52 51 51 49 52 58 61 64 70 73 72 73 77 77 75 72 72 73 70 67 65 63 61 59 53 48 47 46 45 48 50
23 22 22 21 22 24 26 25 25 24 27 30 29 34 43 45 45 43 42 47 50 49 50 51 50 47 45 48 53 55 54 51 48 46 46 47 48 51 54 55 56 58 55 53 57 58 54 54 55 57 58 57 57 57 55 52 49 46 45 45 44 44 45 48 54 56 51 49 48 47 52 56 57 61 66 67 64 65 66 66 66 65 65 65 63 61 60 58 54 51 46 44 45 45 47 51 54
24 22 20 20 21 21 22 23 23 21 24 28 31 36 41 43 44 41 40 46 49 45 46 50 48 44 47 52 53 52 53 52 49 45 46 47 45 46 50 53 55 58 56 51 55 57 52 47 48 51 53 54 54 53 49 45 42 41 40 40 42 43 44 48 53 52 49 48 46 46 49 52 54 57 60 60 60 61 62 65 64 61 59 60 58 59 58 52 47 46 48 49 51 53 56 59 59
21 20 20 21 21 19 19 20 19 20 22 27 33 37 38 41 42 39 38 42 46 45 44 46 43 43 54 58 52 48 48 50 50 48 48 49 45 44 46 49 51 55 57 54 51 54 54 48 47 49 51 51 48 44 42 41 39 39 39 39 42 44 45 49 50 48 48 47 44 45 47 47 49 52 54 55 56 57 61 64 61 56 56 57 56 55 52 47 45 49 53 56 59 61 61 60 58
17 18 21 22 21 19 18 17 17 20 24 27 32 35 36 39 41 39 39 40 43 43 42 41 39 44 54 54 51 51 48 49 51 47 47 49 47 46 45 45 46 47 52 55 51 49 49 45 44 44 43 41 40 39 39 40 40 40 39 41 44 45 45 48 48 47 49 47 44 47 49 48 49 50 52 55 56 56 57 57 55 54 52 50 50 48 47 47 50 55 58 59 60 59 56 52 49
16 17 21 22 21 22 21 20 18 20 25 26 28 32 36 38 41 41 40 39 41 42 40 39 39 44 49 50 52 53 49 52 56 51 50 50 48 45 44 44 47 46 46 50 49 46 45 42 40 40 39 38 38 40 40 41 42 42 42 44 45 45 46 47 48 47 48 48 49 53 53 51 52 54 56 57 58 55 51 49 49 51 50 48 50 52 54 55 58 61 60 55 52 50 46 40 38
17 18 20 21 21 22 23 23 21 20 23 25 26 30 35 38 39 40 37 37 40 42 38 36 38 41 45 48 49 47 47 54 57 55 52 49 44 43 43 43 46 46 45 45 45 45 46 45 44 44 44 43 43 43 43 43 43 44 46 46 44 45 46 47 47 47 47 48 51 53 53 53 56 59 59 57 58 57 55 54 56 57 58 60 61 62 63 59 56 56 51 45 44 42 36 29 28
18 18 18 20 20 21 23 21 20 20 22 25 28 31 36 40 41 38 35 36 39 41 36 36 39 41 43 43 40 38 40 46 49 50 48 45 42 41 43 44 45 45 45 44 44 44 45 46 47 47 46 45 45 44 42 42 42 43 45 45 42 43 45 45 45 46 47 50 53 53 55 57 58 59 60 59 59 60 59 60 64 64 64 66 65 62 57 50 46 44 39 37 37 35 31 23 20
18 18 18 20 19 19 20 19 17 17 19 24 28 31 36 39 38 36 36 36 37 38 37 38 40 40 39 36 34 35 38 40 44 46 46 44 42 43 45 47 47 46 43 42 42 41 41 42 43 44 44 44 43 41 39 40 42 43 44 44 43 45 46 46 46 47 49 50 53 55 56 58 58 58 59 61 62 63 63 61 63 64 63 62 60 54 48 43 40 39 35 32 30 28 26 19 15
18 17 16 17 17 17 18 19 17 15 17 22 26 32 38 40 38 40 40 37 37 37 38 38 37 39 40 36 34 36 37 39 42 44 46 45 44 46 48 47 46 45 43 42 41 41 40 39 39 41 44 44 41 40 39 41 44 45 45 45 46 46 47 47 47 49 50 51 53 55 55 56 56 57 59 61 62 65 65 60 60 61 61 59 54 51 47 41 37 35 31 28 26 26 21 14 13
18 17 17 16 15 16 16 18 20 17 17 22 25 31 38 41 41 42 41 37 36 39 39 38 37 39 42 39 37 38 37 39 42 45 47 46 46 49 48 46 45 44 44 44 43 44 44 42 41 44 46 44 42 43 44 45 47 47 46 45 45 44 45 48 49 50 52 51 52 54 54 55 55 54 54 52 53 58 58 55 55 56 58 58 52 48 46 39 34 31 27 26 26 22 14 10 11
18 18 18 16 16 16 15 16 19 20 19 22 27 28 32 37 39 42 43 38 36 39 40 40 39 37 37 37 37 40 40 39 42 46 49 49 50 49 46 44 44 44 43 42 43 45 47 46 44 43 43 41 42 45 46 45 46 46 43 42 42 43 44 46 47 50 51 50 49 50 51 52 52 52 52 49 49 52 51 51 52 53 55 55 48 42 40 36 31 26 22 24 25 18 11 10 10
16 15 15 15 15 15 16 15 16 18 18 22 29 32 33 35 38 41 44 40 37 39 39 40 40 37 36 36 36 38 39 40 42 46 49 51 49 47 45 44 43 42 41 41 44 48 49 51 48 43 41 41 43 46 45 43 43 42 40 40 41 42 42 44 46 48 49 48 48 49 49 50 51 52 52 53 53 52 52 51 51 50 47 44 40 38 38 36 30 22 19 23 23 16 12 14 12
15 14 13 15 14 12 14 15 14 16 17 19 26 33 35 35 35 40 43 39 36 37 37 37 39 38 37 37 37 37 38 41 43 45 46 46 46 44 43 42 41 39 39 41 43 47 49 51 49 44 43 44 45 44 42 42 42 40 39 40 41 42 43 44 46 48 49 48 47 47 48 49 51 50 48 49 50 50 52 50 45 43 41 38 38 38 37 34 28 22 20 22 20 16 17 18 16
17 15 14 13 12 11 12 13 14 15 15 16 20 31 40 38 36 39 41 37 34 35 36 35 36 38 37 37 37 38 39 40 43 46 45 40 41 42 39 39 40 38 38 39 40 43 44 45 46 45 44 45 44 41 39 40 41 39 38 40 43 45 46 47 47 48 48 49 47 46 48 48 50 50 46 45 45 43 46 45 41 40 40 39 39 39 35 30 27 23 22 24 20 16 18 19 18